CPA751 HAAB-OMDB

Flight info

Callsign CPA751
Flight time 3h 44m
Altitude 39000
Route MIWAS2A MIWAS UT667 DWA UW885 ARSHI/N0483F400 UW885 HARGA/N0486F390 UB404 ESTIK/N0483F410 UB404 DEMGO B404 RIGAM B400 DAXAM Y414 DEDSO R401 VELIK/N0486F400 R401 MUSAP/N0490F350 R401 PEDOG Q308 KIPOK Q568 IMPED
Aircraft B772/H-SDE2E3FGHIJ5LORVWXY/LB1D1

Departure

Time 2026-04-25 14:41
Airport Addis Ababa Bole International Airport (HAAB)

Arrival

Time 2026-04-25 18:25
Airport Dubai International Airport (OMDB)
Time Latitude Longitude Altitude Speed Heading
2026-04-25 14:15 8.98234 38.79658 7646 ft 0 kts 344°
2026-04-25 14:28 8.98222 38.79662 7644 ft 2 kts 343°
2026-04-25 14:28 8.98208 38.79667 7645 ft 2 kts 330°
2026-04-25 14:28 8.98195 38.79675 7646 ft 2 kts 320°
2026-04-25 14:28 8.98184 38.79686 7647 ft 2 kts 310°
2026-04-25 14:29 8.98175 38.79698 7648 ft 2 kts 300°
2026-04-25 14:29 8.98169 38.79712 7648 ft 2 kts 289°
2026-04-25 14:29 8.98165 38.79726 7648 ft 2 kts 279°
2026-04-25 14:29 8.98163 38.79742 7648 ft 2 kts 268°
2026-04-25 14:30 8.98165 38.79757 7648 ft 2 kts 258°
2026-04-25 14:30 8.98167 38.79766 7648 ft 0 kts 253°
2026-04-25 14:33 8.98164 38.79755 7648 ft 4 kts 254°
2026-04-25 14:33 8.98148 38.79699 7648 ft 10 kts 253°
2026-04-25 14:33 8.98122 38.79610 7646 ft 15 kts 253°
2026-04-25 14:33 8.98087 38.79493 7642 ft 15 kts 253°
2026-04-25 14:34 8.98053 38.79380 7639 ft 17 kts 253°
2026-04-25 14:34 8.98017 38.79258 7637 ft 17 kts 253°
2026-04-25 14:34 8.97983 38.79136 7639 ft 20 kts 255°
2026-04-25 14:34 8.97942 38.79004 7643 ft 15 kts 253°
2026-04-25 14:35 8.97916 38.78913 7644 ft 12 kts 254°
2026-04-25 14:35 8.97892 38.78829 7644 ft 12 kts 253°
2026-04-25 14:35 8.97856 38.78758 7644 ft 11 kts 214°
2026-04-25 14:35 8.97772 38.78760 7641 ft 13 kts 161°
2026-04-25 14:36 8.97676 38.78791 7638 ft 15 kts 163°
2026-04-25 14:36 8.97605 38.78813 7636 ft 6 kts 171°
2026-04-25 14:36 8.97555 38.78776 7635 ft 14 kts 246°
2026-04-25 14:36 8.97514 38.78634 7630 ft 26 kts 253°
2026-04-25 14:37 8.97458 38.78447 7622 ft 23 kts 253°
2026-04-25 14:37 8.97432 38.78357 7619 ft 12 kts 253°
2026-04-25 14:37 8.97388 38.78281 7613 ft 11 kts 202°
2026-04-25 14:37 8.97330 38.78296 7610 ft 2 kts 142°
2026-04-25 14:38 8.97330 38.78297 7610 ft 0 kts 142°
2026-04-25 14:38 8.97325 38.78300 7610 ft 4 kts 142°
2026-04-25 14:39 8.97259 38.78358 7606 ft 13 kts 129°
2026-04-25 14:39 8.97255 38.78428 7612 ft 0 kts 73°
2026-04-25 14:40 8.97276 38.78498 7620 ft 36 kts 73°
2026-04-25 14:40 8.97413 38.78969 7634 ft 101 kts 75°
2026-04-25 14:41 8.97671 38.79847 7640 ft 157 kts 74°
2026-04-25 14:41 8.98002 38.81019 7910 ft 176 kts 74°
2026-04-25 14:41 8.98348 38.82236 8540 ft 181 kts 74°
2026-04-25 14:41 8.98699 38.83441 9218 ft 181 kts 73°
2026-04-25 14:42 8.99088 38.84731 9443 ft 201 kts 73°
2026-04-25 14:42 8.99367 38.85677 9580 ft 217 kts 74°
2026-04-25 14:42 8.99993 38.87823 9952 ft 249 kts 73°
2026-04-25 14:42 9.00502 38.89574 10390 ft 267 kts 72°
2026-04-25 14:43 9.01051 38.91460 10935 ft 280 kts 72°
2026-04-25 14:43 9.01633 38.93445 11446 ft 297 kts 72°
2026-04-25 14:43 9.02239 38.95532 11932 ft 314 kts 72°
2026-04-25 14:43 9.02876 38.97726 12394 ft 331 kts 72°
2026-04-25 14:44 9.03551 39.00047 12862 ft 347 kts 72°
2026-04-25 14:44 9.04254 39.02465 13311 ft 363 kts 72°
2026-04-25 14:44 9.04974 39.04965 13766 ft 378 kts 73°
2026-04-25 14:44 9.05649 39.07590 14418 ft 386 kts 74°
2026-04-25 14:45 9.06089 39.09336 14949 ft 387 kts 75°
2026-04-25 14:45 9.06995 39.12917 16024 ft 391 kts 75°
2026-04-25 14:45 9.07679 39.15609 16785 ft 395 kts 75°
2026-04-25 14:45 9.08366 39.18311 17554 ft 399 kts 75°
2026-04-25 14:46 9.09071 39.21078 18259 ft 404 kts 75°
2026-04-25 14:46 9.09781 39.23862 18954 ft 409 kts 75°
2026-04-25 14:46 9.10513 39.26734 19663 ft 414 kts 75°
2026-04-25 14:46 9.11236 39.29570 20370 ft 418 kts 75°
2026-04-25 14:47 9.11965 39.32429 21048 ft 423 kts 75°
2026-04-25 14:47 9.12462 39.34378 21506 ft 426 kts 75°
2026-04-25 14:47 9.13470 39.38331 22385 ft 433 kts 75°
2026-04-25 14:47 9.14227 39.41300 23029 ft 438 kts 75°
2026-04-25 14:48 9.15008 39.44363 23682 ft 443 kts 75°
2026-04-25 14:48 9.15781 39.47398 24288 ft 449 kts 75°
2026-04-25 14:48 9.16572 39.50505 24897 ft 454 kts 75°
2026-04-25 14:48 9.17375 39.53658 25473 ft 460 kts 74°
2026-04-25 14:49 9.18186 39.56845 26016 ft 466 kts 75°
2026-04-25 14:49 9.18993 39.60018 26562 ft 470 kts 75°
2026-04-25 14:49 9.19810 39.63233 27100 ft 475 kts 75°
2026-04-25 14:49 9.20646 39.66522 27615 ft 480 kts 75°
2026-04-25 14:50 9.21473 39.69778 28125 ft 484 kts 75°
2026-04-25 14:50 9.22322 39.73122 28643 ft 488 kts 75°
2026-04-25 14:50 9.23171 39.76465 29154 ft 492 kts 74°
2026-04-25 14:50 9.24031 39.79855 29655 ft 497 kts 74°
2026-04-25 14:51 9.24901 39.83284 30157 ft 501 kts 74°
2026-04-25 14:51 9.25764 39.86692 30761 ft 502 kts 73°
2026-04-25 14:51 9.26631 39.90113 31500 ft 500 kts 73°
2026-04-25 14:51 9.27498 39.93539 32238 ft 497 kts 73°
2026-04-25 14:52 9.28372 39.96989 32938 ft 496 kts 73°
2026-04-25 14:52 9.29223 40.00352 33692 ft 494 kts 73°
2026-04-25 14:52 9.30081 40.03747 34601 ft 489 kts 73°
2026-04-25 14:52 9.30642 40.05967 35235 ft 485 kts 73°
2026-04-25 14:53 9.31759 40.10386 36306 ft 479 kts 73°
2026-04-25 14:53 9.32587 40.13662 36897 ft 478 kts 73°
2026-04-25 14:53 9.33419 40.16953 37417 ft 478 kts 73°
2026-04-25 14:53 9.34248 40.20238 37929 ft 477 kts 73°
2026-04-25 14:54 9.35069 40.23490 38437 ft 475 kts 73°
2026-04-25 14:54 9.35880 40.26705 38985 ft 473 kts 73°
2026-04-25 14:54 9.37524 40.33223 39047 ft 474 kts 73°
2026-04-25 14:55 9.39151 40.39684 39063 ft 472 kts 73°
2026-04-25 14:55 9.40658 40.46171 39082 ft 476 kts 78°
2026-04-25 14:56 9.41760 40.52776 39094 ft 475 kts 78°
2026-04-25 14:56 9.42879 40.59401 39089 ft 475 kts 78°
2026-04-25 14:57 9.44013 40.66030 39096 ft 475 kts 78°
2026-04-25 14:57 9.45153 40.72645 39105 ft 475 kts 78°
2026-04-25 14:58 9.46294 40.79250 39090 ft 475 kts 78°
2026-04-25 14:58 9.47435 40.85848 39101 ft 473 kts 78°
2026-04-25 14:59 9.48589 40.92524 39112 ft 476 kts 78°
2026-04-25 14:59 9.49734 40.99149 39115 ft 477 kts 78°
2026-04-25 15:00 9.50882 41.05795 39106 ft 477 kts 78°
2026-04-25 15:00 9.52027 41.12436 39134 ft 476 kts 78°
2026-04-25 15:01 9.53181 41.19134 39145 ft 475 kts 78°
2026-04-25 15:01 9.54329 41.25805 39138 ft 474 kts 78°
2026-04-25 15:02 9.55491 41.32565 39128 ft 475 kts 78°
2026-04-25 15:02 9.56646 41.39287 39152 ft 476 kts 78°
2026-04-25 15:03 9.57802 41.46029 39159 ft 476 kts 78°
2026-04-25 15:03 9.58948 41.52720 39148 ft 476 kts 78°
2026-04-25 15:04 9.60092 41.59408 39158 ft 476 kts 78°
2026-04-25 15:04 9.61235 41.66091 39151 ft 476 kts 78°
2026-04-25 15:05 9.62372 41.72755 39015 ft 478 kts 78°
2026-04-25 15:05 9.62939 41.76081 39162 ft 474 kts 78°
2026-04-25 15:06 9.64056 41.82775 39144 ft 477 kts 81°
2026-04-25 15:06 9.64072 41.89539 39148 ft 480 kts 91°
2026-04-25 15:07 9.63684 41.96334 39152 ft 479 kts 91°
2026-04-25 15:07 9.63291 42.03162 39149 ft 479 kts 91°
2026-04-25 15:08 9.62899 42.09954 39167 ft 479 kts 91°
2026-04-25 15:08 9.62507 42.16720 39177 ft 477 kts 91°
2026-04-25 15:09 9.62113 42.23519 39196 ft 480 kts 91°
2026-04-25 15:09 9.61517 42.33739 39209 ft 479 kts 91°
2026-04-25 15:10 9.61119 42.40545 39216 ft 480 kts 91°
2026-04-25 15:11 9.60513 42.50852 39220 ft 480 kts 91°
2026-04-25 15:11 9.60113 42.57637 39229 ft 480 kts 91°
2026-04-25 15:12 9.59506 42.67881 39238 ft 478 kts 91°
2026-04-25 15:12 9.59167 42.73586 39241 ft 479 kts 91°
2026-04-25 15:13 9.58487 42.84965 39234 ft 480 kts 91°
2026-04-25 15:14 9.58079 42.91771 39240 ft 480 kts 91°
2026-04-25 15:14 9.57669 42.98569 39239 ft 480 kts 91°
2026-04-25 15:15 9.57259 43.05373 39238 ft 480 kts 91°
2026-04-25 15:15 9.56848 43.12146 39229 ft 478 kts 91°
2026-04-25 15:16 9.56435 43.18950 39230 ft 478 kts 91°
2026-04-25 15:16 9.55813 43.29143 39220 ft 479 kts 91°
2026-04-25 15:17 9.55187 43.39348 39219 ft 480 kts 91°
2026-04-25 15:18 9.54857 43.46195 39215 ft 479 kts 90°
2026-04-25 15:18 9.54454 43.56387 39201 ft 478 kts 90°
2026-04-25 15:19 9.54226 43.62014 39189 ft 478 kts 90°
2026-04-25 15:19 9.53902 43.69895 39172 ft 478 kts 90°
2026-04-25 15:20 9.53622 43.76657 39165 ft 480 kts 90°
2026-04-25 15:20 9.53338 43.83455 39162 ft 480 kts 90°
2026-04-25 15:21 9.53055 43.90187 39159 ft 479 kts 90°
2026-04-25 15:21 9.52769 43.96946 39151 ft 478 kts 90°
2026-04-25 15:22 9.52518 44.03749 39147 ft 479 kts 86°
2026-04-25 15:22 9.53606 44.10422 39145 ft 472 kts 69°
2026-04-25 15:23 9.56446 44.16425 39140 ft 471 kts 58°
2026-04-25 15:23 9.59771 44.22205 39122 ft 469 kts 58°
2026-04-25 15:24 9.63080 44.27948 39112 ft 469 kts 58°
2026-04-25 15:24 9.65861 44.32776 39110 ft 468 kts 58°
2026-04-25 15:25 9.69739 44.39512 39110 ft 469 kts 58°
2026-04-25 15:25 9.73039 44.45247 39113 ft 468 kts 58°
2026-04-25 15:26 9.76373 44.51043 39119 ft 469 kts 58°
2026-04-25 15:26 9.79701 44.56833 39120 ft 469 kts 58°
2026-04-25 15:27 9.83015 44.62599 39114 ft 468 kts 58°
2026-04-25 15:28 9.88015 44.71306 39098 ft 467 kts 58°
2026-04-25 15:28 9.91331 44.77085 39091 ft 468 kts 58°
2026-04-25 15:29 9.94674 44.82913 39107 ft 468 kts 58°
2026-04-25 15:29 9.97987 44.88691 39135 ft 468 kts 58°
2026-04-25 15:30 10.01292 44.94460 39165 ft 467 kts 58°
2026-04-25 15:30 10.04606 45.00246 39177 ft 467 kts 58°
2026-04-25 15:31 10.07920 45.06035 39141 ft 467 kts 58°
2026-04-25 15:31 10.11222 45.11806 39091 ft 467 kts 58°
2026-04-25 15:32 10.14548 45.17623 39058 ft 468 kts 58°
2026-04-25 15:32 10.17866 45.23427 39019 ft 467 kts 58°
2026-04-25 15:33 10.22859 45.32169 38993 ft 468 kts 57°
2026-04-25 15:33 10.26183 45.37992 38979 ft 468 kts 58°
2026-04-25 15:34 10.29471 45.43756 38977 ft 467 kts 57°
2026-04-25 15:34 10.32224 45.48584 38967 ft 468 kts 57°
2026-04-25 15:35 10.37734 45.58251 38937 ft 467 kts 57°
2026-04-25 15:36 10.42691 45.66958 38960 ft 468 kts 58°
2026-04-25 15:36 10.45988 45.72752 38943 ft 467 kts 57°
2026-04-25 15:37 10.49268 45.78520 38958 ft 467 kts 57°
2026-04-25 15:37 10.52554 45.84300 38968 ft 467 kts 57°
2026-04-25 15:38 10.55837 45.90080 38971 ft 466 kts 57°
2026-04-25 15:38 10.59131 45.95879 38960 ft 468 kts 57°
2026-04-25 15:39 10.62406 46.01650 38951 ft 466 kts 57°
2026-04-25 15:39 10.65667 46.07399 38922 ft 467 kts 57°
2026-04-25 15:40 10.68391 46.12205 38909 ft 466 kts 57°
2026-04-25 15:40 10.72230 46.18979 38880 ft 467 kts 57°
2026-04-25 15:41 10.75492 46.24740 38870 ft 467 kts 57°
2026-04-25 15:41 10.78753 46.30502 38860 ft 467 kts 57°
2026-04-25 15:42 10.82061 46.36301 38854 ft 465 kts 56°
2026-04-25 15:42 10.85381 46.42037 38847 ft 467 kts 56°
2026-04-25 15:43 10.88716 46.47808 38848 ft 466 kts 56°
2026-04-25 15:43 10.92034 46.53554 38848 ft 466 kts 56°
2026-04-25 15:44 10.95374 46.59343 38844 ft 467 kts 56°
2026-04-25 15:44 10.98703 46.65118 38843 ft 466 kts 56°
2026-04-25 15:45 11.01986 46.70818 38843 ft 465 kts 56°
2026-04-25 15:45 11.04737 46.75594 38842 ft 467 kts 56°
2026-04-25 15:46 11.08587 46.82284 38841 ft 464 kts 56°
2026-04-25 15:46 11.11892 46.88030 38855 ft 468 kts 56°
2026-04-25 15:47 11.15242 46.93857 38853 ft 468 kts 56°
2026-04-25 15:47 11.18532 46.99586 38855 ft 466 kts 56°
2026-04-25 15:48 11.21812 47.05298 38859 ft 466 kts 56°
2026-04-25 15:48 11.25101 47.11029 38858 ft 464 kts 56°
2026-04-25 15:49 11.28394 47.16771 38868 ft 467 kts 56°
2026-04-25 15:49 11.31739 47.22607 38869 ft 467 kts 56°
2026-04-25 15:50 11.35039 47.28365 38876 ft 468 kts 56°
2026-04-25 15:50 11.38316 47.34089 38884 ft 467 kts 56°
2026-04-25 15:51 11.41056 47.38874 38890 ft 467 kts 56°
2026-04-25 15:51 11.44909 47.45607 38889 ft 468 kts 56°
2026-04-25 15:52 11.48235 47.51421 38894 ft 467 kts 56°
2026-04-25 15:52 11.51524 47.57175 38895 ft 467 kts 56°
2026-04-25 15:53 11.54803 47.62916 38890 ft 467 kts 56°
2026-04-25 15:53 11.58095 47.68681 38901 ft 469 kts 56°
2026-04-25 15:54 11.61373 47.74427 38899 ft 467 kts 56°
2026-04-25 15:54 11.64686 47.80236 38902 ft 468 kts 56°
2026-04-25 15:55 11.67994 47.86039 38897 ft 468 kts 56°
2026-04-25 15:55 11.71313 47.91868 38899 ft 467 kts 56°
2026-04-25 15:56 11.74614 47.97666 38900 ft 469 kts 56°
2026-04-25 15:56 11.77912 48.03463 38905 ft 469 kts 56°
2026-04-25 15:57 11.81231 48.09301 38905 ft 467 kts 56°
2026-04-25 15:57 11.84519 48.15087 38894 ft 467 kts 56°
2026-04-25 15:58 11.87825 48.20909 38897 ft 468 kts 56°
2026-04-25 15:58 11.91129 48.26730 38893 ft 469 kts 56°
2026-04-25 15:59 11.94417 48.32527 38884 ft 468 kts 56°
2026-04-25 15:59 11.97698 48.38315 38885 ft 467 kts 56°
2026-04-25 16:00 12.00455 48.43182 38887 ft 467 kts 56°
2026-04-25 16:00 12.04307 48.49984 38884 ft 467 kts 56°
2026-04-25 16:01 12.07606 48.55709 38879 ft 466 kts 55°
2026-04-25 16:01 12.10969 48.61473 38881 ft 468 kts 55°
2026-04-25 16:02 12.14340 48.67263 38879 ft 467 kts 55°
2026-04-25 16:02 12.17691 48.73024 38878 ft 467 kts 55°
2026-04-25 16:03 12.21026 48.78762 38880 ft 467 kts 55°
2026-04-25 16:03 12.24385 48.84547 38889 ft 466 kts 55°
2026-04-25 16:04 12.27728 48.90309 38900 ft 466 kts 55°
2026-04-25 16:04 12.31075 48.96079 38897 ft 467 kts 55°
2026-04-25 16:05 12.34431 49.01869 38895 ft 467 kts 55°
2026-04-25 16:06 12.39445 49.10527 38888 ft 468 kts 55°
2026-04-25 16:06 12.42760 49.16257 38892 ft 467 kts 55°
2026-04-25 16:07 12.46060 49.21964 38890 ft 466 kts 55°
2026-04-25 16:07 12.49377 49.27702 38892 ft 467 kts 55°
2026-04-25 16:08 12.52675 49.33413 38888 ft 466 kts 55°
2026-04-25 16:08 12.55992 49.39159 38888 ft 467 kts 55°
2026-04-25 16:09 12.59306 49.44905 38889 ft 467 kts 55°
2026-04-25 16:09 12.62604 49.50625 38887 ft 467 kts 55°
2026-04-25 16:10 12.65939 49.56415 38889 ft 468 kts 55°
2026-04-25 16:10 12.69251 49.62167 38892 ft 468 kts 54°
2026-04-25 16:11 12.72552 49.67905 38895 ft 466 kts 55°
2026-04-25 16:11 12.75875 49.73683 38897 ft 468 kts 55°
2026-04-25 16:12 12.79201 49.79472 38895 ft 467 kts 54°
2026-04-25 16:12 12.82514 49.85241 38898 ft 466 kts 55°
2026-04-25 16:13 12.85809 49.90982 38900 ft 466 kts 54°
2026-04-25 16:13 12.89131 49.96773 38899 ft 467 kts 55°
2026-04-25 16:14 12.92444 50.02552 38901 ft 468 kts 54°
2026-04-25 16:14 12.95774 50.08367 38902 ft 466 kts 54°
2026-04-25 16:15 12.99069 50.14124 38902 ft 466 kts 54°
2026-04-25 16:15 13.02380 50.19910 38902 ft 467 kts 54°
2026-04-25 16:16 13.05686 50.25693 38898 ft 467 kts 54°
2026-04-25 16:16 13.08992 50.31481 38901 ft 466 kts 54°
2026-04-25 16:17 13.12299 50.37273 38913 ft 467 kts 54°
2026-04-25 16:17 13.15622 50.43097 38914 ft 466 kts 54°
2026-04-25 16:18 13.18929 50.48898 38916 ft 465 kts 54°
2026-04-25 16:18 13.22236 50.54712 38915 ft 468 kts 54°
2026-04-25 16:19 13.25554 50.60569 38918 ft 467 kts 55°
2026-04-25 16:19 13.28851 50.66393 38920 ft 465 kts 55°
2026-04-25 16:20 13.33791 50.75124 38918 ft 466 kts 55°
2026-04-25 16:21 13.38724 50.83850 38919 ft 466 kts 54°
2026-04-25 16:21 13.42013 50.89672 38924 ft 466 kts 55°
2026-04-25 16:22 13.45294 50.95486 38933 ft 466 kts 55°
2026-04-25 16:22 13.48565 51.01285 38924 ft 467 kts 55°
2026-04-25 16:23 13.51882 51.07169 38926 ft 468 kts 55°
2026-04-25 16:23 13.55187 51.13035 38925 ft 469 kts 55°
2026-04-25 16:24 13.58521 51.18959 38925 ft 468 kts 55°
2026-04-25 16:24 13.61844 51.24868 38928 ft 467 kts 54°
2026-04-25 16:25 13.65131 51.30715 38928 ft 468 kts 54°
2026-04-25 16:25 13.68460 51.36642 38929 ft 467 kts 55°
2026-04-25 16:26 13.71766 51.42530 38925 ft 468 kts 54°
2026-04-25 16:26 13.75066 51.48406 38927 ft 467 kts 54°
2026-04-25 16:27 13.78447 51.54256 38926 ft 468 kts 53°
2026-04-25 16:27 13.81829 51.60103 38922 ft 468 kts 54°
2026-04-25 16:28 13.85202 51.65945 38921 ft 468 kts 54°
2026-04-25 16:28 13.88561 51.71767 38920 ft 469 kts 54°
2026-04-25 16:29 13.91943 51.77637 38914 ft 468 kts 54°
2026-04-25 16:29 13.95304 51.83472 38922 ft 468 kts 54°
2026-04-25 16:30 13.98669 51.89321 38913 ft 468 kts 54°
2026-04-25 16:30 14.02007 51.95128 38904 ft 468 kts 54°
2026-04-25 16:31 14.05372 52.00986 38904 ft 468 kts 54°
2026-04-25 16:31 14.08724 52.06823 38904 ft 468 kts 54°
2026-04-25 16:32 14.12091 52.12692 38917 ft 469 kts 54°
2026-04-25 16:32 14.15493 52.18628 38923 ft 469 kts 54°
2026-04-25 16:33 14.18873 52.24528 38927 ft 468 kts 54°
2026-04-25 16:33 14.22206 52.30351 38934 ft 468 kts 54°
2026-04-25 16:34 14.25544 52.36186 38935 ft 468 kts 54°
2026-04-25 16:34 14.28889 52.42038 38935 ft 469 kts 54°
2026-04-25 16:35 14.32238 52.47901 38937 ft 469 kts 54°
2026-04-25 16:35 14.35555 52.53713 38932 ft 469 kts 54°
2026-04-25 16:36 14.38890 52.59560 38933 ft 469 kts 53°
2026-04-25 16:36 14.42243 52.65444 38931 ft 468 kts 54°
2026-04-25 16:37 14.45590 52.71321 38931 ft 469 kts 54°
2026-04-25 16:37 14.48943 52.77212 38930 ft 468 kts 53°
2026-04-25 16:38 14.52254 52.83034 38930 ft 469 kts 54°
2026-04-25 16:38 14.55593 52.88910 38928 ft 469 kts 53°
2026-04-25 16:39 14.58916 52.94762 38928 ft 467 kts 54°
2026-04-25 16:39 14.62234 53.00610 38928 ft 468 kts 53°
2026-04-25 16:40 14.65968 53.06121 38925 ft 459 kts 41°
2026-04-25 16:40 14.70913 53.10276 38930 ft 449 kts 28°
2026-04-25 16:41 14.76293 53.13702 38926 ft 448 kts 27°
2026-04-25 16:41 14.84382 53.18845 38926 ft 448 kts 27°
2026-04-25 16:42 14.89791 53.22293 38925 ft 449 kts 27°
2026-04-25 16:42 14.95165 53.25721 38925 ft 448 kts 27°
2026-04-25 16:43 15.00491 53.29122 38926 ft 449 kts 27°
2026-04-25 16:43 15.05847 53.32544 38922 ft 449 kts 27°
2026-04-25 16:44 15.11208 53.35972 38936 ft 448 kts 27°
2026-04-25 16:44 15.16578 53.39408 38937 ft 448 kts 27°
2026-04-25 16:45 15.21901 53.42817 38936 ft 448 kts 27°
2026-04-25 16:45 15.27286 53.46267 38939 ft 449 kts 27°
2026-04-25 16:46 15.32645 53.49702 38939 ft 448 kts 27°
2026-04-25 16:46 15.37072 53.52541 38943 ft 448 kts 27°
2026-04-25 16:47 15.43314 53.56547 38941 ft 449 kts 27°
2026-04-25 16:47 15.48672 53.60091 38942 ft 448 kts 28°
2026-04-25 16:48 15.54015 53.63658 38943 ft 451 kts 28°
2026-04-25 16:48 15.59300 53.67188 38942 ft 447 kts 28°
2026-04-25 16:49 15.64698 53.70789 38940 ft 450 kts 28°
2026-04-25 16:49 15.70099 53.74395 38939 ft 450 kts 28°
2026-04-25 16:50 15.75379 53.77923 38939 ft 448 kts 28°
2026-04-25 16:50 15.80725 53.81495 38944 ft 450 kts 28°
2026-04-25 16:51 15.85983 53.85012 38941 ft 448 kts 28°
2026-04-25 16:51 15.90422 53.87967 38933 ft 450 kts 27°
2026-04-25 16:52 15.96663 53.92078 38923 ft 450 kts 27°
2026-04-25 16:52 16.02037 53.95622 38921 ft 451 kts 27°
2026-04-25 16:53 16.10096 54.00945 38920 ft 447 kts 27°
2026-04-25 16:54 16.15441 54.04477 38937 ft 451 kts 27°
2026-04-25 16:54 16.20925 54.08105 38935 ft 448 kts 27°
2026-04-25 16:55 16.26339 54.11689 38941 ft 450 kts 27°
2026-04-25 16:55 16.31706 54.15243 38939 ft 450 kts 27°
2026-04-25 16:56 16.37110 54.18825 38938 ft 450 kts 27°
2026-04-25 16:56 16.42438 54.22359 38939 ft 450 kts 27°
2026-04-25 16:57 16.47786 54.25909 38940 ft 449 kts 27°
2026-04-25 16:57 16.53090 54.29431 38937 ft 449 kts 27°
2026-04-25 16:58 16.58443 54.32989 38937 ft 449 kts 27°
2026-04-25 16:58 16.63754 54.36521 38937 ft 450 kts 27°
2026-04-25 16:59 16.69095 54.40075 38934 ft 450 kts 27°
2026-04-25 16:59 16.74402 54.43610 38929 ft 449 kts 27°
2026-04-25 17:00 16.79696 54.47137 38927 ft 448 kts 27°
2026-04-25 17:00 16.85009 54.50679 38927 ft 451 kts 27°
2026-04-25 17:01 16.90356 54.54248 38928 ft 449 kts 27°
2026-04-25 17:01 16.95692 54.57809 38929 ft 449 kts 27°
2026-04-25 17:02 17.00980 54.61339 38934 ft 450 kts 27°
2026-04-25 17:02 17.06336 54.64918 38965 ft 451 kts 27°
2026-04-25 17:03 17.11683 54.68494 39016 ft 449 kts 28°
2026-04-25 17:03 17.16965 54.72028 39055 ft 450 kts 27°
2026-04-25 17:04 17.22240 54.75561 39105 ft 451 kts 28°
2026-04-25 17:04 17.27541 54.79113 39140 ft 451 kts 28°
2026-04-25 17:05 17.32674 54.82940 39136 ft 454 kts 31°
2026-04-25 17:05 17.40376 54.88776 39121 ft 452 kts 30°
2026-04-25 17:06 17.45486 54.92635 39104 ft 451 kts 30°
2026-04-25 17:06 17.50645 54.96525 39090 ft 454 kts 30°
2026-04-25 17:07 17.55810 55.00421 39083 ft 453 kts 30°
2026-04-25 17:07 17.60968 55.04312 39059 ft 452 kts 30°
2026-04-25 17:08 17.66072 55.08165 39036 ft 451 kts 30°
2026-04-25 17:08 17.71248 55.12073 39028 ft 454 kts 30°
2026-04-25 17:09 17.76382 55.15954 39027 ft 452 kts 30°
2026-04-25 17:09 17.81556 55.19867 39024 ft 456 kts 30°
2026-04-25 17:10 17.86711 55.23771 39020 ft 451 kts 30°
2026-04-25 17:10 17.91832 55.27651 39011 ft 454 kts 30°
2026-04-25 17:11 17.96999 55.31569 39008 ft 453 kts 30°
2026-04-25 17:11 18.02126 55.35458 39006 ft 454 kts 30°
2026-04-25 17:12 18.07258 55.39355 38996 ft 452 kts 30°
2026-04-25 17:12 18.12493 55.43105 39009 ft 451 kts 27°
2026-04-25 17:13 18.16879 55.46072 39003 ft 452 kts 27°
2026-04-25 17:13 18.23046 55.50270 39000 ft 449 kts 27°
2026-04-25 17:14 18.28318 55.53871 38996 ft 449 kts 27°
2026-04-25 17:14 18.33604 55.57490 38992 ft 451 kts 27°
2026-04-25 17:15 18.38884 55.61110 38988 ft 451 kts 27°
2026-04-25 17:15 18.44133 55.64713 38984 ft 450 kts 27°
2026-04-25 17:16 18.49404 55.68333 38973 ft 451 kts 28°
2026-04-25 17:16 18.54681 55.71961 38971 ft 451 kts 27°
2026-04-25 17:17 18.59984 55.75609 38966 ft 453 kts 28°
2026-04-25 17:17 18.65261 55.79244 38972 ft 450 kts 27°
2026-04-25 17:18 18.70544 55.82884 38965 ft 451 kts 27°
2026-04-25 17:18 18.75802 55.86512 38962 ft 449 kts 27°
2026-04-25 17:19 18.81079 55.90152 38964 ft 453 kts 27°
2026-04-25 17:19 18.86377 55.93811 38956 ft 452 kts 27°
2026-04-25 17:20 18.91682 55.97481 38956 ft 447 kts 27°
2026-04-25 17:20 18.97091 56.00833 38960 ft 446 kts 18°
2026-04-25 17:21 19.02973 56.02759 38955 ft 439 kts 10°
2026-04-25 17:21 19.08912 56.04344 38938 ft 438 kts 10°
2026-04-25 17:22 19.11894 56.05139 39149 ft 443 kts 10°
2026-04-25 17:22 19.13922 56.05682 39578 ft 441 kts 10°
2026-04-25 17:22 19.17867 56.06739 40336 ft 439 kts 11°
2026-04-25 17:22 19.20857 56.07540 40587 ft 442 kts 11°
2026-04-25 17:23 19.23871 56.08347 40794 ft 446 kts 11°
2026-04-25 17:23 19.26886 56.09156 40953 ft 449 kts 11°
2026-04-25 17:23 19.33007 56.10801 40944 ft 446 kts 11°
2026-04-25 17:24 19.39065 56.12429 40943 ft 447 kts 11°
2026-04-25 17:24 19.45147 56.14066 40940 ft 445 kts 11°
2026-04-25 17:25 19.51197 56.15694 40939 ft 448 kts 11°
2026-04-25 17:25 19.57289 56.17336 40939 ft 446 kts 11°
2026-04-25 17:26 19.63366 56.18975 40934 ft 446 kts 11°
2026-04-25 17:26 19.69444 56.20615 40944 ft 446 kts 11°
2026-04-25 17:27 19.75503 56.22252 40942 ft 445 kts 11°
2026-04-25 17:27 19.80567 56.23620 40939 ft 448 kts 10°
2026-04-25 17:28 19.87688 56.25547 40936 ft 446 kts 10°
2026-04-25 17:28 19.93772 56.27194 40933 ft 448 kts 10°
2026-04-25 17:29 19.99906 56.28088 40932 ft 441 kts 358°
2026-04-25 17:29 20.06046 56.28110 40936 ft 442 kts 357°
2026-04-25 17:30 20.12238 56.28120 40945 ft 440 kts 357°
2026-04-25 17:30 20.18455 56.28133 40953 ft 444 kts 357°
2026-04-25 17:31 20.24640 56.28147 40952 ft 442 kts 357°
2026-04-25 17:31 20.30792 56.28162 40948 ft 439 kts 357°
2026-04-25 17:32 20.36969 56.28177 40954 ft 441 kts 357°
2026-04-25 17:32 20.43140 56.28192 40946 ft 440 kts 357°
2026-04-25 17:33 20.49285 56.28207 40940 ft 440 kts 357°
2026-04-25 17:33 20.55456 56.28173 40930 ft 439 kts 353°
2026-04-25 17:34 20.61547 56.27374 40939 ft 437 kts 350°
2026-04-25 17:34 20.67590 56.26495 40928 ft 437 kts 349°
2026-04-25 17:35 20.73648 56.25616 40926 ft 438 kts 349°
2026-04-25 17:35 20.79757 56.24729 40926 ft 437 kts 349°
2026-04-25 17:36 20.85832 56.23848 40919 ft 437 kts 349°
2026-04-25 17:36 20.91921 56.22964 40915 ft 436 kts 349°
2026-04-25 17:37 20.97983 56.22083 40915 ft 438 kts 349°
2026-04-25 17:37 21.04078 56.21197 40911 ft 436 kts 349°
2026-04-25 17:38 21.09134 56.20461 40906 ft 440 kts 349°
2026-04-25 17:38 21.16241 56.19427 40915 ft 436 kts 349°
2026-04-25 17:39 21.22316 56.18541 40915 ft 437 kts 349°
2026-04-25 17:39 21.28379 56.17657 40904 ft 438 kts 349°
2026-04-25 17:40 21.34453 56.16766 40906 ft 439 kts 349°
2026-04-25 17:40 21.40528 56.15875 40899 ft 437 kts 349°
2026-04-25 17:41 21.46600 56.14984 40898 ft 436 kts 349°
2026-04-25 17:41 21.52643 56.14096 40892 ft 437 kts 349°
2026-04-25 17:42 21.58720 56.13202 40892 ft 438 kts 349°
2026-04-25 17:42 21.64820 56.12304 40893 ft 437 kts 349°
2026-04-25 17:43 21.70856 56.11415 40887 ft 436 kts 349°
2026-04-25 17:43 21.76950 56.10516 40887 ft 437 kts 349°
2026-04-25 17:44 21.83057 56.09615 40889 ft 439 kts 349°
2026-04-25 17:44 21.89140 56.08717 40887 ft 437 kts 349°
2026-04-25 17:45 21.94198 56.07969 40881 ft 439 kts 349°
2026-04-25 17:45 22.01267 56.06923 40884 ft 436 kts 349°
2026-04-25 17:46 22.07338 56.06025 40884 ft 439 kts 348°
2026-04-25 17:46 22.13438 56.05122 40894 ft 438 kts 349°
2026-04-25 17:47 22.19540 56.04219 40899 ft 438 kts 349°
2026-04-25 17:47 22.25622 56.03317 40907 ft 438 kts 348°
2026-04-25 17:48 22.34787 56.01956 40914 ft 440 kts 349°
2026-04-25 17:49 22.40954 56.01043 40913 ft 439 kts 349°
2026-04-25 17:49 22.47061 56.00142 40915 ft 439 kts 349°
2026-04-25 17:50 22.53166 55.99240 40915 ft 438 kts 349°
2026-04-25 17:50 22.59280 55.98337 40918 ft 438 kts 348°
2026-04-25 17:51 22.65401 55.97431 40918 ft 440 kts 348°
2026-04-25 17:51 22.71537 55.96522 40919 ft 438 kts 348°
2026-04-25 17:52 22.77622 55.95620 40920 ft 440 kts 348°
2026-04-25 17:52 22.83722 55.94713 40919 ft 439 kts 348°
2026-04-25 17:53 22.89810 55.93802 40924 ft 439 kts 348°
2026-04-25 17:53 22.95967 55.92880 40922 ft 439 kts 348°
2026-04-25 17:54 23.02095 55.91962 40922 ft 439 kts 348°
2026-04-25 17:54 23.08236 55.91039 40923 ft 440 kts 348°
2026-04-25 17:55 23.14336 55.90120 40937 ft 439 kts 348°
2026-04-25 17:55 23.20389 55.89207 40936 ft 438 kts 348°
2026-04-25 17:56 23.26498 55.88285 40941 ft 433 kts 348°
2026-04-25 17:56 23.29458 55.87840 40664 ft 423 kts 348°
2026-04-25 17:56 23.32408 55.87394 39484 ft 430 kts 347°
2026-04-25 17:56 23.35406 55.86938 38216 ft 437 kts 347°
2026-04-25 17:57 23.38370 55.86489 37612 ft 434 kts 347°
2026-04-25 17:57 23.41389 55.86033 37006 ft 431 kts 347°
2026-04-25 17:57 23.44355 55.85585 36414 ft 428 kts 348°
2026-04-25 17:57 23.46301 55.85290 35993 ft 425 kts 347°
2026-04-25 17:58 23.50189 55.84702 35197 ft 418 kts 348°
2026-04-25 17:58 23.53066 55.84265 34571 ft 424 kts 348°
2026-04-25 17:58 23.56073 55.83805 33940 ft 438 kts 348°
2026-04-25 17:58 23.59093 55.83345 33350 ft 443 kts 348°
2026-04-25 17:59 23.62189 55.82874 32767 ft 449 kts 348°
2026-04-25 17:59 23.65308 55.82399 32152 ft 451 kts 348°
2026-04-25 17:59 23.68415 55.81937 31545 ft 453 kts 351°
2026-04-25 17:59 23.71641 55.81849 30929 ft 460 kts 359°
2026-04-25 18:00 23.73761 55.82029 30533 ft 464 kts
2026-04-25 18:00 23.78117 55.82481 29718 ft 468 kts
2026-04-25 18:00 23.81400 55.82827 29111 ft 471 kts
2026-04-25 18:00 23.84711 55.83176 28517 ft 472 kts
2026-04-25 18:01 23.87969 55.83520 27933 ft 472 kts
2026-04-25 18:01 23.91273 55.83867 27348 ft 472 kts
2026-04-25 18:01 23.94603 55.84217 26757 ft 470 kts
2026-04-25 18:01 23.97859 55.84559 26179 ft 466 kts
2026-04-25 18:02 24.01111 55.84901 25596 ft 461 kts
2026-04-25 18:02 24.04312 55.85237 25020 ft 457 kts
2026-04-25 18:02 24.07509 55.85572 24438 ft 453 kts
2026-04-25 18:02 24.10660 55.85903 23856 ft 449 kts
2026-04-25 18:03 24.13776 55.86230 23264 ft 445 kts
2026-04-25 18:03 24.16888 55.86557 22675 ft 442 kts
2026-04-25 18:03 24.20009 55.86885 22139 ft 436 kts
2026-04-25 18:03 24.23043 55.87204 22017 ft 421 kts
2026-04-25 18:04 24.25909 55.87506 22011 ft 404 kts
2026-04-25 18:04 24.28682 55.87799 22011 ft 388 kts
2026-04-25 18:04 24.31391 55.88119 22014 ft 380 kts
2026-04-25 18:04 24.34058 55.88620 21672 ft 391 kts 11°
2026-04-25 18:05 24.36648 55.89539 21154 ft 393 kts 22°
2026-04-25 18:05 24.39075 55.91043 20739 ft 390 kts 35°
2026-04-25 18:05 24.41138 55.92930 20402 ft 385 kts 41°
2026-04-25 18:05 24.43117 55.94924 20068 ft 380 kts 42°
2026-04-25 18:06 24.45067 55.96893 19729 ft 375 kts 42°
2026-04-25 18:06 24.46992 55.98830 19395 ft 375 kts 42°
2026-04-25 18:06 24.48944 56.00789 19058 ft 375 kts 42°
2026-04-25 18:06 24.50862 56.02712 18736 ft 373 kts 42°
2026-04-25 18:07 24.52789 56.04643 18399 ft 371 kts 42°
2026-04-25 18:07 24.54720 56.06579 18054 ft 368 kts 42°
2026-04-25 18:07 24.56618 56.08486 17724 ft 365 kts 43°
2026-04-25 18:07 24.58523 56.10345 17392 ft 364 kts 37°
2026-04-25 18:08 24.60679 56.11778 17049 ft 361 kts 23°
2026-04-25 18:08 24.63102 56.12586 16714 ft 358 kts 12°
2026-04-25 18:08 24.65573 56.13110 16392 ft 357 kts
2026-04-25 18:08 24.68041 56.13588 16060 ft 355 kts
2026-04-25 18:09 24.70485 56.14048 15757 ft 352 kts
2026-04-25 18:09 24.72927 56.14504 15466 ft 351 kts
2026-04-25 18:09 24.75314 56.14946 15300 ft 339 kts
2026-04-25 18:09 24.76836 56.15228 15303 ft 328 kts
2026-04-25 18:10 24.79851 56.15181 15006 ft 319 kts 345°
2026-04-25 18:10 24.81940 56.14375 14619 ft 319 kts 337°
2026-04-25 18:10 24.84016 56.13399 14305 ft 317 kts 336°
2026-04-25 18:10 24.86028 56.12416 13982 ft 316 kts 335°
2026-04-25 18:11 24.88053 56.11419 13646 ft 315 kts 335°
2026-04-25 18:11 24.90086 56.10418 13323 ft 313 kts 335°
2026-04-25 18:11 24.92079 56.09435 12957 ft 310 kts 335°
2026-04-25 18:11 24.94062 56.08459 12394 ft 308 kts 335°
2026-04-25 18:12 24.96024 56.07490 11902 ft 304 kts 334°
2026-04-25 18:12 24.97780 56.06192 11480 ft 300 kts 315°
2026-04-25 18:12 24.99251 56.04529 11083 ft 296 kts 311°
2026-04-25 18:12 25.00625 56.02850 10725 ft 293 kts 310°
2026-04-25 18:13 25.01992 56.01168 10332 ft 291 kts 310°
2026-04-25 18:13 25.03363 55.99487 9930 ft 289 kts 310°
2026-04-25 18:13 25.04726 55.97817 9543 ft 287 kts 310°
2026-04-25 18:14 25.07294 55.94465 8778 ft 281 kts 297°
2026-04-25 18:14 25.07862 55.92423 8349 ft 279 kts 274°
2026-04-25 18:14 25.07633 55.90303 7938 ft 278 kts 255°
2026-04-25 18:14 25.07034 55.88285 7533 ft 277 kts 253°
2026-04-25 18:15 25.06398 55.86242 7156 ft 275 kts 253°
2026-04-25 18:15 25.05771 55.84240 6742 ft 275 kts 253°
2026-04-25 18:15 25.05146 55.82240 6325 ft 274 kts 254°
2026-04-25 18:15 25.04522 55.80248 5920 ft 274 kts 254°
2026-04-25 18:16 25.03900 55.78256 5558 ft 271 kts 255°
2026-04-25 18:16 25.03694 55.76232 5266 ft 258 kts 281°
2026-04-25 18:16 25.05137 55.72700 5033 ft 250 kts 300°
2026-04-25 18:17 25.06023 55.70995 5024 ft 251 kts 301°
2026-04-25 18:17 25.06905 55.69316 5018 ft 246 kts 301°
2026-04-25 18:17 25.07766 55.67699 5012 ft 233 kts 302°
2026-04-25 18:17 25.08584 55.66191 5020 ft 221 kts 302°
2026-04-25 18:18 25.09382 55.64751 5014 ft 209 kts 303°
2026-04-25 18:18 25.10156 55.63384 4807 ft 209 kts 303°
2026-04-25 18:18 25.10965 55.61997 4513 ft 210 kts 303°
2026-04-25 18:18 25.11745 55.60648 4268 ft 200 kts 303°
2026-04-25 18:19 25.12482 55.59354 4031 ft 188 kts 303°
2026-04-25 18:19 25.13168 55.58138 3804 ft 178 kts 303°
2026-04-25 18:19 25.13787 55.57034 3634 ft 154 kts 303°
2026-04-25 18:19 25.14336 55.56054 3421 ft 144 kts 303°
2026-04-25 18:20 25.14841 55.55148 3241 ft 131 kts 303°
2026-04-25 18:20 25.15362 55.54216 3080 ft 148 kts 303°
2026-04-25 18:20 25.15909 55.53234 2877 ft 150 kts 303°
2026-04-25 18:20 25.16452 55.52256 2674 ft 143 kts 303°
2026-04-25 18:21 25.16970 55.51331 2491 ft 137 kts 303°
2026-04-25 18:21 25.17458 55.50458 2317 ft 128 kts 303°
2026-04-25 18:21 25.17916 55.49639 2162 ft 119 kts 303°
2026-04-25 18:21 25.18368 55.48831 2004 ft 126 kts 303°
2026-04-25 18:22 25.18831 55.48000 1826 ft 126 kts 303°
2026-04-25 18:22 25.19138 55.47448 1717 ft 124 kts 303°
2026-04-25 18:22 25.19748 55.46357 1492 ft 123 kts 303°
2026-04-25 18:22 25.20204 55.45541 1332 ft 124 kts 303°
2026-04-25 18:23 25.20661 55.44721 1159 ft 124 kts 303°
2026-04-25 18:23 25.21119 55.43901 1002 ft 125 kts 303°
2026-04-25 18:23 25.21586 55.43065 829 ft 125 kts 303°
2026-04-25 18:23 25.22039 55.42250 663 ft 122 kts 303°
2026-04-25 18:24 25.22491 55.41438 510 ft 122 kts 302°
2026-04-25 18:24 25.22947 55.40625 351 ft 124 kts 303°
2026-04-25 18:24 25.23410 55.39803 184 ft 124 kts 303°
2026-04-25 18:24 25.23871 55.38985 78 ft 116 kts 302°
2026-04-25 18:25 25.24223 55.38347 77 ft 72 kts 305°
2026-04-25 18:25 25.24456 55.37934 77 ft 52 kts 301°
2026-04-25 18:25 25.24620 55.37633 77 ft 39 kts 301°
2026-04-25 18:25 25.24737 55.37407 77 ft 25 kts 291°
2026-04-25 18:26 25.24780 55.37227 76 ft 20 kts 276°
2026-04-25 18:26 25.24785 55.37154 77 ft 3 kts 272°
2026-04-25 18:26 25.24785 55.37145 76 ft 3 kts 272°
2026-04-25 18:26 25.24786 55.37091 76 ft 9 kts 272°
2026-04-25 18:27 25.24789 55.37007 76 ft 11 kts 273°
2026-04-25 18:27 25.24819 55.36913 76 ft 14 kts 297°
2026-04-25 18:27 25.24853 55.36809 76 ft 14 kts 282°
2026-04-25 18:27 25.24882 55.36689 76 ft 16 kts 292°
2026-04-25 18:28 25.24940 55.36576 76 ft 14 kts 300°
2026-04-25 18:28 25.24994 55.36476 76 ft 16 kts 302°
2026-04-25 18:28 25.25057 55.36364 76 ft 18 kts 302°
2026-04-25 18:29 25.25186 55.36131 76 ft 18 kts 302°
2026-04-25 18:29 25.25259 55.36000 76 ft 20 kts 301°
2026-04-25 18:30 25.25504 55.35560 76 ft 23 kts 302°
2026-04-25 18:30 25.25587 55.35406 76 ft 21 kts 300°
2026-04-25 18:30 25.25637 55.35316 76 ft 2 kts 302°
2026-04-25 18:30 25.25658 55.35279 76 ft 10 kts 302°
2026-04-25 18:31 25.25716 55.35175 76 ft 19 kts 301°
2026-04-25 18:31 25.25786 55.35043 76 ft 20 kts 300°
2026-04-25 18:31 25.25861 55.34906 76 ft 20 kts 301°
2026-04-25 18:31 25.25938 55.34767 76 ft 21 kts 301°
2026-04-25 18:32 25.26017 55.34626 76 ft 20 kts 302°
2026-04-25 18:32 25.26058 55.34537 76 ft 7 kts 257°
2026-04-25 18:32 25.26009 55.34494 76 ft 10 kts 210°
2026-04-25 18:32 25.25945 55.34451 76 ft 8 kts 210°
2026-04-25 18:33 25.25912 55.34429 76 ft 1 kts 211°